This is the latest recevied weather packets stored in our database for station/object N7ZAP. If no packets are shown the sender has not sent any weather packets the latest 1 day(s).
| Time | Temp. | Humidity | Pressure | Rain* | Wind** | Luminosity | Snow |
|---|---|---|---|---|---|---|---|
| 1778054706 | 9.44° C | 63% | 1014.7 hPa | 0 mm | - | - | - |
| 1778053797 | 10° C | 64% | 1014.6 hPa | 0 mm | - | - | - |
| 1778052889 | 10° C | 63% | 1014.6 hPa | 0 mm | - | - | - |
| 1778052586 | 10° C | 64% | 1014.9 hPa | 0 mm | - | - | - |
| 1778052283 | 10° C | 65% | 1014.8 hPa | 0 mm | - | - | - |
| 1778051679 | 10° C | 67% | 1014.8 hPa | 0 mm | - | - | - |
| 1778051072 | 10° C | 68% | 1014.7 hPa | 0 mm | - | - | - |
| 1778050770 | 10.56° C | 68% | 1014.7 hPa | 0 mm | - | - | - |
| 1778050163 | 10.56° C | 67% | 1014.8 hPa | 0 mm | - | - | - |
| 1778049254 | 10° C | 73% | 1014.7 hPa | 0 mm | - | - | - |
| 1778048346 | 10° C | 76% | 1014.6 hPa | 0 mm | - | - | - |
| 1778047741 | 10° C | 74% | 1014.6 hPa | 0 mm | - | - | - |
| 1778047135 | 10.56° C | 74% | 1014.7 hPa | 0 mm | - | - | - |
| 1778046832 | 10.56° C | 74% | 1014.4 hPa | 0 mm | - | - | - |
| 1778046529 | 10.56° C | 74% | 1014.1 hPa | 0 mm | - | - | - |
| 1778046226 | 10.56° C | 74% | 1014.4 hPa | 0 mm | - | - | - |
| 1778045922 | 10.56° C | 73% | 1014.5 hPa | 0 mm | - | - | - |
| 1778045621 | 10.56° C | 73% | 1014.1 hPa | 0 mm | - | - | - |
| 1778045319 | 10.56° C | 73% | 1014.1 hPa | 0 mm | - | - | - |
| 1778045017 | 10.56° C | 72% | 1014 hPa | 0 mm | - | - | - |
| 1778044714 | 10.56° C | 72% | 1014.1 hPa | 0 mm | - | - | - |
| 1778044410 | 11.11° C | 71% | 1014.1 hPa | 0 mm | - | - | - |
| 1778044108 | 11.11° C | 71% | 1013.9 hPa | 0 mm | - | - | - |
| 1778043805 | 11.11° C | 71% | 1014.2 hPa | 0 mm | - | - | - |
| 1778043502 | 11.11° C | 70% | 1014.1 hPa | 0 mm | - | - | - |
* Rain latest hour (hover to see other rain measurements)
** Current wind speed in m/s (hover to see current wind gust speed)